�������l�o���
Date,Time,MP-1(��Sv/h),MP-2(��Sv/h),MP-3(��Sv/h),MP-4(��Sv/h),MP-5(��Sv/h),MP-6(��Sv/h),MP-7(��Sv/h),MP-8(��Sv/h),����,����(m/s),���J
2023/12/14,00:00,0.508,0.770,0.481,0.964,0.694,0.310,0.559,0.523,�k��,4.9,��
2023/12/14,00:10,0.509,0.771,0.479,0.965,0.692,0.310,0.561,0.522,�k��,5.8,��
2023/12/14,00:20,0.507,0.770,0.480,0.964,0.695,0.310,0.561,0.523,�k��,5.5,��
2023/12/14,00:30,0.508,0.768,0.480,0.967,0.692,0.312,0.558,0.522,�k��,5.4,��
2023/12/14,00:40,0.508,0.769,0.480,0.966,0.692,0.310,0.559,0.523,�k��,5.4,��
2023/12/14,00:50,0.507,0.772,0.480,0.965,0.695,0.310,0.558,0.523,�k��,6.6,��
2023/12/14,01:00,0.507,0.770,0.480,0.967,0.693,0.311,0.558,0.523,�k��,6.5,��
2023/12/14,01:10,0.508,0.770,0.480,0.967,0.694,0.311,0.558,0.524,�k��,5.5,��
2023/12/14,01:20,0.509,0.770,0.481,0.965,0.693,0.310,0.559,0.523,���k��,5.7,��
2023/12/14,01:30,0.508,0.770,0.480,0.967,0.694,0.310,0.558,0.523,���k��,6.8,��
2023/12/14,01:40,0.507,0.769,0.480,0.968,0.694,0.310,0.559,0.523,���k��,5.8,��
2023/12/14,01:50,0.509,0.771,0.481,0.965,0.692,0.309,0.558,0.522,���k��,5.6,��
2023/12/14,02:00,0.509,0.770,0.480,0.969,0.694,0.311,0.561,0.523,���k��,6.7,��
2023/12/14,02:10,0.508,0.770,0.480,0.968,0.694,0.311,0.558,0.523,���k��,8.4,��
2023/12/14,02:20,0.509,0.767,0.482,0.965,0.694,0.310,0.559,0.524,���k��,7.8,��
2023/12/14,02:30,0.508,0.768,0.482,0.966,0.694,0.310,0.559,0.524,���k��,7.8,��
2023/12/14,02:40,0.510,0.771,0.481,0.966,0.694,0.311,0.562,0.523,���k��,7.9,��
2023/12/14,02:50,0.508,0.769,0.480,0.968,0.694,0.309,0.560,0.523,���k��,7.8,��
2023/12/14,03:00,0.508,0.770,0.481,0.966,0.693,0.310,0.559,0.523,���k��,7.7,��
2023/12/14,03:10,0.508,0.770,0.481,0.967,0.694,0.311,0.562,0.523,���k��,6.9,��
2023/12/14,03:20,0.508,0.768,0.481,0.966,0.694,0.311,0.561,0.523,���k��,8.7,��
2023/12/14,03:30,0.509,0.770,0.480,0.970,0.694,0.311,0.562,0.523,���k��,7.3,��
2023/12/14,03:40,0.510,0.770,0.480,0.967,0.693,0.310,0.561,0.524,���k��,6.7,��
2023/12/14,03:50,0.509,0.770,0.481,0.966,0.693,0.310,0.562,0.523,���k��,6.7,��
2023/12/14,04:00,0.508,0.771,0.480,0.969,0.693,0.311,0.559,0.524,���k��,6.2,��
2023/12/14,04:10,0.507,0.771,0.480,0.967,0.692,0.311,0.559,0.524,�k��,6.6,��
2023/12/14,04:20,0.509,0.770,0.481,0.967,0.694,0.309,0.560,0.524,���k��,6.3,��
2023/12/14,04:30,0.508,0.769,0.481,0.967,0.691,0.310,0.560,0.524,���k��,7.9,��
2023/12/14,04:40,0.508,0.771,0.481,0.967,0.693,0.311,0.561,0.523,���k��,8.0,��
2023/12/14,04:50,0.507,0.769,0.480,0.967,0.693,0.310,0.561,0.523,���k��,7.8,��
2023/12/14,05:00,0.507,0.769,0.482,0.969,0.693,0.310,0.561,0.522,���k��,8.2,��
2023/12/14,05:10,0.509,0.768,0.480,0.967,0.695,0.310,0.561,0.525,���k��,8.1,��
2023/12/14,05:20,0.508,0.769,0.480,0.967,0.694,0.310,0.560,0.523,���k��,9.8,��
2023/12/14,05:30,0.508,0.772,0.482,0.967,0.694,0.310,0.560,0.522,��,8.2,��
2023/12/14,05:40,0.510,0.772,0.480,0.967,0.694,0.311,0.561,0.524,��,8.5,��
2023/12/14,05:50,0.508,0.768,0.480,0.970,0.694,0.310,0.562,0.524,��,7.8,��
2023/12/14,06:00,0.509,0.769,0.481,0.966,0.694,0.309,0.562,0.523,���k��,7.7,��
2023/12/14,06:10,0.509,0.771,0.480,0.968,0.695,0.310,0.561,0.524,���k��,6.4,��
2023/12/14,06:20,0.510,0.768,0.480,0.967,0.694,0.310,0.561,0.524,���k��,5.5,��
2023/12/14,06:30,0.509,0.771,0.481,0.967,0.695,0.310,0.562,0.524,���k��,5.4,��
2023/12/14,06:40,0.509,0.771,0.480,0.968,0.695,0.309,0.561,0.525,���k��,3.9,��
2023/12/14,06:50,0.510,0.768,0.480,0.969,0.691,0.309,0.562,0.524,���k��,3.9,��
2023/12/14,07:00,0.508,0.770,0.481,0.965,0.692,0.310,0.561,0.523,���k��,5.9,��
2023/12/14,07:10,0.510,0.770,0.479,0.967,0.693,0.309,0.561,0.524,���k��,5.8,��
2023/12/14,07:20,0.509,0.770,0.481,0.968,0.692,0.311,0.561,0.524,���k��,4.4,��
2023/12/14,07:30,0.509,0.770,0.480,0.966,0.695,0.310,0.559,0.524,���k��,3.2,��
2023/12/14,07:40,0.508,0.769,0.480,0.968,0.694,0.310,0.559,0.523,���k��,3.2,��
2023/12/14,07:50,0.509,0.769,0.482,0.968,0.693,0.308,0.561,0.524,�k��,2.3,��
2023/12/14,08:00,0.509,0.770,0.482,0.968,0.694,0.309,0.559,0.524,�k��,1.2,��
2023/12/14,08:10,0.509,0.771,0.481,0.968,0.693,0.309,0.561,0.523,���k��,1.5,��
2023/12/14,08:20,0.508,0.770,0.482,0.967,0.694,0.309,0.560,0.522,���k��,2.0,��
2023/12/14,08:30,0.508,0.771,0.483,0.967,0.692,0.310,0.560,0.524,��,2.5,��
2023/12/14,08:40,0.507,0.768,0.482,0.968,0.693,0.310,0.559,0.524,��,2.0,��
2023/12/14,08:50,0.510,0.771,0.481,0.969,0.694,0.310,0.562,0.523,�k��,0.9,��
2023/12/14,09:00,0.507,0.770,0.482,0.969,0.694,0.310,0.558,0.524,�k��,3.5,��
2023/12/14,09:10,0.509,0.769,0.481,0.967,0.693,0.310,0.562,0.524,��,2.6,��
2023/12/14,09:20,0.509,0.768,0.480,0.969,0.694,0.310,0.560,0.524,���k��,4.5,��
2023/12/14,09:30,0.508,0.769,0.481,0.970,0.693,0.310,0.559,0.524,���k��,3.2,��
2023/12/14,09:40,0.509,0.768,0.481,0.968,0.695,0.309,0.559,0.522,���k��,3.6,��
2023/12/14,09:50,0.509,0.770,0.482,0.968,0.693,0.311,0.559,0.524,���k��,4.5,��
2023/12/14,10:00,0.508,0.768,0.482,0.967,0.692,0.311,0.560,0.524,���k��,3.4,��
2023/12/14,10:10,0.509,0.769,0.482,0.970,0.693,0.310,0.559,0.524,���k��,4.1,��
2023/12/14,10:20,0.510,0.769,0.480,0.968,0.694,0.311,0.559,0.524,��,3.1,��
2023/12/14,10:30,0.509,0.768,0.479,0.968,0.692,0.312,0.559,0.523,��,3.2,��
2023/12/14,10:40,0.508,0.769,0.479,0.970,0.693,0.311,0.558,0.524,��,3.6,��
2023/12/14,10:50,0.511,0.768,0.480,0.969,0.696,0.310,0.558,0.524,���k��,2.2,��
2023/12/14,11:00,0.508,0.770,0.479,0.970,0.693,0.311,0.560,0.524,�k��,4.2,��
2023/12/14,11:10,0.509,0.769,0.481,0.969,0.695,0.311,0.561,0.525,�k��,4.4,��
2023/12/14,11:20,0.511,0.769,0.482,0.969,0.698,0.307,0.560,0.525,���k��,3.5,��
2023/12/14,11:30,0.509,0.769,0.479,0.970,0.698,0.307,0.559,0.524,�k�k��,4.9,��
2023/12/14,11:40,0.509,0.769,0.482,0.971,0.696,0.313,0.559,0.523,�k��,3.6,��
2023/12/14,11:50,0.508,0.771,0.479,0.970,0.696,0.312,0.560,0.525,�k�k��,4.6,��
2023/12/14,12:00,0.510,0.769,0.482,0.970,0.698,0.311,0.559,0.527,�k�k��,5.3,��
2023/12/14,12:10,0.508,0.771,0.483,0.970,0.695,0.311,0.560,0.525,�k�k��,4.8,��
2023/12/14,12:20,0.510,0.769,0.483,0.971,0.697,0.311,0.562,0.524,�k�k��,5.3,��
2023/12/14,12:30,0.510,0.769,0.484,0.971,0.699,0.313,0.561,0.526,�k�k��,5.2,��
2023/12/14,12:40,0.510,0.772,0.483,0.971,0.698,0.312,0.560,0.525,�k�k��,5.3,��
2023/12/14,12:50,0.510,0.772,0.484,0.972,0.697,0.312,0.560,0.524,�k�k��,5.3,��
2023/12/14,13:00,0.509,0.771,0.483,0.971,0.696,0.312,0.561,0.523,�k�k��,4.6,��
2023/12/14,13:10,0.509,0.770,0.483,0.971,0.699,0.311,0.561,0.523,�k�k��,4.2,��
2023/12/14,13:20,0.509,0.768,0.483,0.972,0.698,0.313,0.562,0.524,�k�k��,4.9,��
2023/12/14,13:30,0.510,0.770,0.482,0.973,0.697,0.312,0.563,0.523,�k�k��,3.9,��
2023/12/14,13:40,0.510,0.769,0.483,0.971,0.700,0.311,0.562,0.524,�k,2.9,��
2023/12/14,13:50,0.509,0.770,0.482,0.971,0.696,0.313,0.562,0.523,�k,3.7,��
2023/12/14,14:00,0.509,0.770,0.480,0.971,0.697,0.313,0.563,0.524,�k�k��,3.8,��
2023/12/14,14:10,0.509,0.770,0.482,0.969,0.698,0.311,0.561,0.523,�k,4.8,��
2023/12/14,14:20,0.511,0.771,0.482,0.971,0.698,0.312,0.561,0.524,�k�k��,4.2,��
2023/12/14,14:30,0.509,0.771,0.482,0.972,0.698,0.313,0.563,0.524,�k,3.7,��
2023/12/14,14:40,0.507,0.769,0.482,0.969,0.697,0.311,0.563,0.523,�k�k��,4.1,��
2023/12/14,14:50,0.508,0.772,0.484,0.972,0.697,0.312,0.563,0.523,�k,4.1,��
2023/12/14,15:00,0.510,0.774,0.483,0.971,0.696,0.312,0.563,0.526,�k�k��,4.5,��
2023/12/14,15:10,0.512,0.772,0.483,0.972,0.699,0.313,0.563,0.525,�k�k��,4.0,��
2023/12/14,15:20,0.509,0.774,0.483,0.972,0.698,0.312,0.563,0.524,�k�k��,3.7,��
2023/12/14,15:30,0.512,0.775,0.483,0.970,0.697,0.312,0.563,0.527,�k�k��,4.4,��
2023/12/14,15:40,0.510,0.774,0.483,0.971,0.696,0.312,0.563,0.525,�k�k��,3.5,��
2023/12/14,15:50,0.509,0.774,0.483,0.972,0.697,0.312,0.562,0.526,�k�k��,3.6,��
2023/12/14,16:00,0.510,0.773,0.482,0.971,0.698,0.312,0.564,0.524,�k�k��,3.0,��
2023/12/14,16:10,0.511,0.774,0.483,0.972,0.697,0.312,0.563,0.523,�k�k��,1.7,��
2023/12/14,16:20,0.511,0.773,0.482,0.971,0.697,0.312,0.561,0.525,�k,1.1,��
2023/12/14,16:30,0.511,0.774,0.483,0.972,0.698,0.312,0.562,0.525,�k,1.2,��
2023/12/14,16:40,0.510,0.774,0.483,0.971,0.697,0.312,0.562,0.523,�k,1.7,��
2023/12/14,16:50,0.510,0.774,0.484,0.969,0.698,0.310,0.560,0.525,�k�k��,1.8,��
2023/12/14,17:00,0.511,0.775,0.484,0.972,0.698,0.312,0.561,0.524,�k�k��,2.0,��
2023/12/14,17:10,0.510,0.775,0.482,0.972,0.696,0.312,0.561,0.525,�k��,2.9,��
2023/12/14,17:20,0.511,0.775,0.483,0.971,0.698,0.313,0.562,0.525,�k��,2.1,��
2023/12/14,17:30,0.511,0.776,0.482,0.970,0.698,0.312,0.560,0.525,�k��,2.8,��
2023/12/14,17:40,0.510,0.773,0.483,0.972,0.698,0.312,0.562,0.522,�k��,3.8,��
2023/12/14,17:50,0.511,0.774,0.485,0.972,0.697,0.311,0.563,0.525,���k��,3.7,��
2023/12/14,18:00,0.511,0.774,0.484,0.973,0.696,0.311,0.560,0.524,���k��,3.4,��
2023/12/14,18:10,0.510,0.775,0.483,0.970,0.698,0.311,0.560,0.525,���k��,3.9,��
2023/12/14,18:20,0.510,0.776,0.483,0.971,0.698,0.311,0.562,0.525,�k��,5.0,��
2023/12/14,18:30,0.511,0.774,0.482,0.971,0.697,0.312,0.559,0.523,�k��,4.7,��
2023/12/14,18:40,0.511,0.773,0.482,0.969,0.700,0.312,0.561,0.524,�k��,4.5,��
2023/12/14,18:50,0.511,0.772,0.482,0.971,0.695,0.312,0.562,0.524,���k��,4.1,��
2023/12/14,19:00,0.511,0.777,0.484,0.972,0.696,0.311,0.559,0.523,���k��,3.8,��
2023/12/14,19:10,0.510,0.775,0.482,0.971,0.697,0.311,0.560,0.524,���k��,4.3,��
2023/12/14,19:20,0.510,0.774,0.483,0.971,0.698,0.311,0.558,0.525,���k��,4.7,��
2023/12/14,19:30,0.509,0.770,0.482,0.971,0.698,0.312,0.560,0.525,���k��,4.5,��
2023/12/14,19:40,0.511,0.774,0.482,0.971,0.698,0.313,0.559,0.524,���k��,5.6,��
2023/12/14,19:50,0.512,0.776,0.483,0.972,0.699,0.312,0.561,0.523,���k��,5.1,��
2023/12/14,20:00,0.511,0.773,0.483,0.971,0.698,0.310,0.560,0.524,�k��,4.7,��
2023/12/14,20:10,0.510,0.775,0.483,0.973,0.697,0.312,0.559,0.524,�k��,3.8,��
2023/12/14,20:20,0.510,0.775,0.482,0.971,0.698,0.311,0.560,0.526,�k��,4.0,��
2023/12/14,20:30,0.511,0.774,0.484,0.971,0.698,0.311,0.560,0.525,�k�k��,4.1,��
2023/12/14,20:40,0.510,0.773,0.483,0.973,0.698,0.311,0.559,0.523,�k�k��,4.4,��
2023/12/14,20:50,0.510,0.774,0.483,0.972,0.697,0.311,0.561,0.524,�k�k��,5.0,��
2023/12/14,21:00,0.509,0.775,0.483,0.973,0.698,0.311,0.559,0.524,�k��,5.8,��
2023/12/14,21:10,0.512,0.775,0.482,0.972,0.697,0.313,0.560,0.523,�k��,5.0,��
2023/12/14,21:20,0.512,0.774,0.483,0.970,0.697,0.310,0.560,0.523,���k��,4.5,��
2023/12/14,21:30,0.511,0.775,0.484,0.973,0.699,0.313,0.559,0.524,�k��,4.6,��
2023/12/14,21:40,0.510,0.775,0.483,0.972,0.696,0.311,0.560,0.524,�k��,4.8,��
2023/12/14,21:50,0.512,0.774,0.483,0.972,0.698,0.311,0.560,0.525,�k��,6.2,��
2023/12/14,22:00,0.510,0.774,0.482,0.972,0.697,0.311,0.560,0.524,�k��,4.3,��
2023/12/14,22:10,0.511,0.774,0.483,0.972,0.698,0.313,0.561,0.524,�k��,4.2,��
2023/12/14,22:20,0.512,0.776,0.483,0.972,0.698,0.312,0.558,0.525,�k��,4.3,��
2023/12/14,22:30,0.510,0.775,0.481,0.973,0.698,0.310,0.560,0.526,�k��,4.6,��
2023/12/14,22:40,0.511,0.775,0.482,0.971,0.698,0.311,0.559,0.524,�k��,4.9,��
2023/12/14,22:50,0.511,0.773,0.481,0.971,0.698,0.313,0.559,0.525,�k��,5.7,��
2023/12/14,23:00,0.510,0.773,0.483,0.972,0.698,0.312,0.559,0.525,�k��,6.1,��
2023/12/14,23:10,0.512,0.775,0.484,0.974,0.698,0.312,0.559,0.524,�k��,6.1,��
2023/12/14,23:20,0.509,0.772,0.483,0.974,0.697,0.311,0.561,0.524,�k��,5.8,��
2023/12/14,23:30,0.510,0.773,0.482,0.972,0.697,0.313,0.561,0.524,�k��,5.1,��
2023/12/14,23:40,0.513,0.774,0.484,0.973,0.698,0.311,0.560,0.524,���k��,5.6,��
2023/12/14,23:50,0.509,0.775,0.481,0.972,0.698,0.312,0.561,0.525,�k��,5.5,��
